Skip Page Navigation
NASA JPL Caltech
NASA Logo - Jet Propulsion Laboratory + View the NASA Portal
+ Center for Near-Earth Object Studies
JPL Home Earth Solar System Stars & Galaxies Technology
JPL Solar System Dynamics
BODIES ORBITS EPHEMERIDES TOOLS PHYSICAL DATA DISCOVERY FAQ SITE MAP
IMPORTANT: The SSD Announcement email list is now available. Major changes are coming in the near future, including possible hostname and/or URL changes. To be notified of such changes, subscribe to this email list.

Please visit this page for more details.


JPL Small-Body Database Browser
Search: [ help ]  
212132 (2005 EV230)
Classification: Main-belt Asteroid          SPK-ID: 2212132
Ephemeris | Orbit Diagram | Orbital Elements | Mission Design | Physical Parameters | Discovery Circumstances | Close-Approach Data ]

[ show orbit diagram ]
Orbital Elements at Epoch 2458600.5 (2019-Apr-27.0) TDB
Reference: JPL 11 (heliocentric ecliptic J2000)
 Element Value Uncertainty (1-sigma)   Units 
e .1805285285737647 5.6056e-08  
a 2.402947142179327 3.0591e-08 au
q 1.96914663036116 1.3139e-07 au
i 5.064083679897013 6.881e-06 deg
node 2.880296106788094 6.2857e-05 deg
peri 304.5097962421592 6.7601e-05 deg
M 152.8010201065517 3.6719e-05 deg
tp 2458023.017927707400
(2017-Sep-26.51792771)
0.00012973 TDB
period 1360.550773027345
3.72
2.5981e-05
7.113e-08
d
yr
n .2645987251170114 5.0528e-09 deg/d
Q 2.836747653997494 3.6114e-08 au
  Orbit Determination Parameters
   # obs. used (total)      201  
   data-arc span      7491 days (20.51 yr)  
   first obs. used      1995-08-30  
   last obs. used      2016-03-03  
   planetary ephem.      DE431  
   SB-pert. ephem.      SB431-N16  
   condition code      0  
   norm. resid. RMS      .57892  
   source      ORB  
   producer      Otto Matic  
   solution date      2017-Apr-10 23:48:31  

Additional Information
 Earth MOID = .95915 au 
 Jupiter MOID = 2.43047 au 
 T_jup = 3.497 
[ show covariance matrix ]

Ephemeris | Orbit Diagram | Orbital Elements | Mission Design | Physical Parameters | Discovery Circumstances | Close-Approach Data ]

Physical Parameter Table
Parameter Symbol Value Units Sigma Reference Notes
absolute magnitude H 16.8   n/a MPO367390  

212132 (2005 EV230)          Discovered 2005-Mar-10 by Mt. Lemmon Survey at Mount Lemmon
Reference: 20090409/Numbers.arcLast Updated: 2009-04-10

[ show close-approach data ]
Ephemeris | Orbit Diagram | Orbital Elements | Mission Design | Physical Parameters | Discovery Circumstances | Close-Approach Data ]
ABOUT SSD CREDITS/AWARDS PRIVACY/COPYRIGHT GLOSSARY LINKS
FirstGov
(server date/time)  
NASA Home Page
Site Manager:   Ryan S. Park
Webmaster  Alan B. Chamberlin